Météo par heure à Kyselytsi

Ce jour, 25 Juillet, Dimanche

Heure Température Précipitation Vent Pression Humidité
00:00 +17°C° 0 mm 2 m/s 707 mmHg 98%
01:00 +16°C° 0 mm 1 m/s 706 mmHg 98%
02:00 +16°C° 0 mm 1 m/s 706 mmHg 97%
03:00 +16°C° 0 mm 1 m/s 706 mmHg 95%
04:00 +16°C° 0 mm 1 m/s 706 mmHg 92%
05:00 +16°C° 0 mm 2 m/s 706 mmHg 91%
06:00 +16°C° 0 mm 2 m/s 707 mmHg 91%
07:00 +18°C° 0 mm 1 m/s 707 mmHg 92%
08:00 +20°C° 0 mm 1 m/s 707 mmHg 93%
09:00 +22°C° 0 mm 1 m/s 708 mmHg 91%
10:00 +23°C° 0 mm 1 m/s 708 mmHg 84%
11:00 +24°C° 0 mm 2 m/s 708 mmHg 74%
12:00 +25°C° 0 mm 2 m/s 709 mmHg 73%
13:00 +25°C° 0 mm 2 m/s 708 mmHg 73%
14:00 +26°C° 0 mm 2 m/s 708 mmHg 72%
15:00 +26°C° 0 mm 2 m/s 708 mmHg 73%
16:00 +26°C° 0 mm 2 m/s 707 mmHg 74%
17:00 +25°C° 0 mm 3 m/s 707 mmHg 83%
18:00 +23°C° 0 mm 4 m/s 707 mmHg 87%
19:00 +24°C° 0 mm 3 m/s 707 mmHg 91%
20:00 +22°C° 0 mm 3 m/s 707 mmHg 94%
21:00 +21°C° 0 mm 2 m/s 707 mmHg 95%
22:00 +20°C° 0 mm 3 m/s 707 mmHg 97%
23:00 +20°C° 0 mm 3 m/s 707 mmHg 95%

Demain, 26 Juillet, Lundi

Heure Température Précipitation Vent Pression Humidité
00:00 +20°C° 0 mm 3 m/s 707 mmHg 93%
01:00 +20°C° 0 mm 2 m/s 706 mmHg 93%
02:00 +19°C° 0 mm 2 m/s 706 mmHg 92%
03:00 +20°C° 0 mm 2 m/s 706 mmHg 90%
04:00 +19°C° 0 mm 2 m/s 706 mmHg 86%
05:00 +19°C° 0 mm 2 m/s 706 mmHg 84%
06:00 +19°C° 0 mm 2 m/s 706 mmHg 82%
07:00 +20°C° 0 mm 2 m/s 706 mmHg 85%
08:00 +21°C° 0 mm 3 m/s 706 mmHg 85%
09:00 +24°C° 0 mm 2 m/s 706 mmHg 82%
10:00 +26°C° 0 mm 3 m/s 707 mmHg 77%
11:00 +27°C° 0 mm 4 m/s 707 mmHg 75%
12:00 +27°C° 0 mm 4 m/s 708 mmHg 75%
13:00 +28°C° 0 mm 4 m/s 707 mmHg 74%
14:00 +28°C° 0 mm 4 m/s 707 mmHg 75%
15:00 +28°C° 0 mm 4 m/s 707 mmHg 77%
16:00 +28°C° 0 mm 4 m/s 706 mmHg 79%
17:00 +28°C° 0 mm 5 m/s 707 mmHg 82%
18:00 +27°C° 0 mm 4 m/s 706 mmHg 86%
19:00 +26°C° 0 mm 4 m/s 706 mmHg 89%
20:00 +25°C° 0 mm 3 m/s 706 mmHg 90%
21:00 +23°C° 0 mm 4 m/s 706 mmHg 92%
22:00 +23°C° 0 mm 4 m/s 706 mmHg 92%
23:00 +22°C° 0 mm 3 m/s 706 mmHg 94%

Après-demain, 27 Juillet, Mardi

Heure Température Précipitation Vent Pression Humidité
00:00 +22°C° 0 mm 3 m/s 706 mmHg 95%
01:00 +23°C° 0 mm 2 m/s 706 mmHg 93%
02:00 +23°C° 0 mm 2 m/s 706 mmHg 92%
03:00 +23°C° 0 mm 2 m/s 706 mmHg 91%
04:00 +21°C° 0 mm 3 m/s 706 mmHg 90%
05:00 +21°C° 0 mm 3 m/s 706 mmHg 92%
06:00 +21°C° 0 mm 2 m/s 706 mmHg 92%
07:00 +23°C° 0 mm 1 m/s 707 mmHg 94%
08:00 +25°C° 0 mm 2 m/s 707 mmHg 93%
09:00 +26°C° 0 mm 3 m/s 707 mmHg 90%
10:00 +27°C° 0 mm 3 m/s 708 mmHg 88%
11:00 +28°C° 0 mm 3 m/s 708 mmHg 87%
12:00 +29°C° 0 mm 4 m/s 708 mmHg 84%
13:00 +29°C° 0 mm 4 m/s 708 mmHg 83%
14:00 +29°C° 0 mm 5 m/s 707 mmHg 82%
15:00 +29°C° 0 mm 4 m/s 707 mmHg 83%
16:00 +29°C° 0 mm 4 m/s 707 mmHg 85%
17:00 +28°C° 0 mm 5 m/s 706 mmHg 84%
18:00 +27°C° 0 mm 5 m/s 706 mmHg 89%
19:00 +26°C° 0 mm 4 m/s 705 mmHg 91%
20:00 +25°C° 0 mm 2 m/s 706 mmHg 90%
21:00 +25°C° 0 mm 1 m/s 706 mmHg 93%
22:00 +24°C° 0 mm 2 m/s 706 mmHg 96%
23:00 +23°C° 0 mm 2 m/s 706 mmHg 96%

28 Juillet, Mercredi

Heure Température Précipitation Vent Pression Humidité
00:00 +23°C° 0 mm 2 m/s 706 mmHg 97%
01:00 +21°C° 0 mm 3 m/s 705 mmHg 98%
02:00 +21°C° 0 mm 2 m/s 705 mmHg 96%
03:00 +21°C° 0 mm 3 m/s 705 mmHg 99%
04:00 +21°C° 0 mm 3 m/s 705 mmHg 98%
05:00 +21°C° 0 mm 2 m/s 704 mmHg 96%
06:00 +22°C° 0 mm 1 m/s 704 mmHg 95%
07:00 +23°C° 0 mm 2 m/s 705 mmHg 98%
08:00 +24°C° 0 mm 2 m/s 705 mmHg 95%
09:00 +25°C° 0 mm 3 m/s 706 mmHg 94%
10:00 +26°C° 0 mm 4 m/s 706 mmHg 90%
11:00 +27°C° 0 mm 5 m/s 706 mmHg 86%
12:00 +27°C° 0 mm 5 m/s 706 mmHg 84%
13:00 +27°C° 0 mm 5 m/s 706 mmHg 84%
14:00 +27°C° 0 mm 6 m/s 705 mmHg 84%
15:00 +27°C° 0 mm 6 m/s 705 mmHg 85%
16:00 +27°C° 0 mm 5 m/s 705 mmHg 85%
17:00 +27°C° 0 mm 5 m/s 705 mmHg 85%
18:00 +26°C° 0 mm 5 m/s 705 mmHg 87%
19:00 +25°C° 0 mm 5 m/s 704 mmHg 90%
20:00 +23°C° 0 mm 5 m/s 704 mmHg 93%
21:00 +22°C° 0 mm 4 m/s 704 mmHg 96%
22:00 +23°C° 0 mm 2 m/s 704 mmHg 97%
23:00 +23°C° 0 mm 2 m/s 705 mmHg 95%

29 Juillet, Jeudi

Heure Température Précipitation Vent Pression Humidité
00:00 +22°C° 0 mm 1 m/s 705 mmHg 97%
01:00 +21°C° 0 mm 2 m/s 704 mmHg 100%
02:00 +21°C° 0 mm 1 m/s 705 mmHg 100%
03:00 +20°C° 0 mm 2 m/s 705 mmHg 100%
04:00 +19°C° 0 mm 2 m/s 705 mmHg 100%
05:00 +19°C° 0 mm 2 m/s 705 mmHg 100%
06:00 +19°C° 0 mm 2 m/s 705 mmHg 100%
07:00 +20°C° 0 mm 1 m/s 706 mmHg 100%
08:00 +21°C° 0 mm 1 m/s 706 mmHg 100%
09:00 +22°C° 0 mm 1 m/s 706 mmHg 100%
10:00 +23°C° 0 mm 1 m/s 706 mmHg 99%
11:00 +23°C° 0 mm 2 m/s 706 mmHg 97%
12:00 +24°C° 0 mm 2 m/s 707 mmHg 96%
13:00 +24°C° 0 mm 2 m/s 706 mmHg 97%
14:00 +24°C° 0 mm 2 m/s 706 mmHg 97%
15:00 +24°C° 0 mm 3 m/s 706 mmHg 98%
16:00 +24°C° 0.5 mm 3 m/s 706 mmHg 97%
17:00 +24°C° 0 mm 3 m/s 706 mmHg 99%
18:00 +24°C° 0 mm 2 m/s 706 mmHg 98%
19:00 +23°C° 0 mm 2 m/s 706 mmHg 99%
20:00 +23°C° 0 mm 1 m/s 706 mmHg 100%
21:00 +20°C° 0 mm 0 m/s 706 mmHg 100%
22:00 +20°C° 0 mm 0 m/s 706 mmHg 100%
23:00 +19°C° 0 mm 0 m/s 706 mmHg 100%

30 Juillet, Vendredi

Heure Température Précipitation Vent Pression Humidité
00:00 +19°C° 0 mm 0 m/s 706 mmHg 100%
01:00 +19°C° 0 mm 0 m/s 706 mmHg 100%
02:00 +20°C° 0 mm 1 m/s 706 mmHg 100%
03:00 +20°C° 0 mm 1 m/s 706 mmHg 100%
04:00 +20°C° 0 mm 1 m/s 706 mmHg 100%
05:00 +20°C° 0 mm 1 m/s 706 mmHg 100%
06:00 +20°C° 0 mm 1 m/s 706 mmHg 100%
07:00 +19°C° 0 mm 2 m/s 706 mmHg 100%
08:00 +19°C° 0 mm 2 m/s 706 mmHg 100%
09:00 +21°C° 0 mm 2 m/s 707 mmHg 100%
10:00 +24°C° 0 mm 1 m/s 707 mmHg 97%
11:00 +23°C° 0 mm 0 m/s 707 mmHg 90%
12:00 +24°C° 0 mm 0 m/s 707 mmHg 81%
13:00 +27°C° 0 mm 1 m/s 707 mmHg 76%
14:00 +27°C° 0 mm 1 m/s 707 mmHg 81%
15:00 +27°C° 0 mm 2 m/s 706 mmHg 87%
16:00 +27°C° 0.9 mm 2 m/s 706 mmHg 91%
17:00 +27°C° 0.2 mm 2 m/s 706 mmHg 90%
18:00 +26°C° 0.1 mm 3 m/s 705 mmHg 90%
19:00 +25°C° 0 mm 3 m/s 705 mmHg 95%
20:00 +24°C° 0 mm 2 m/s 705 mmHg 96%
21:00 +24°C° 0 mm 2 m/s 705 mmHg 97%
22:00 +23°C° 0 mm 1 m/s 705 mmHg 95%
23:00 +21°C° 0 mm 2 m/s 705 mmHg 98%
Voir plus

Nous avons besoin de votre consentement

Meteoprog et ses fournisseurs de services peuvent stocker et accéder à des données personnelles telles que des cookies, des identifiants d'appareils ou d'autres technologies similaires sur votre appareil et traiter ces données pour personnaliser le contenu et les publicités, ainsi que pour fournir des fonctionnalités de médias sociaux et analyser le trafic.

  • Stocker et/ou accéder à des informations sur votre appareil

    Des cookies, des identifiants d'appareils ou d'autres informations peuvent être stockés ou accessibles sur votre appareil aux fins indiquées ci-dessus.

  • Annonces et contenus personnalisés, mesure des annonces et des contenus, connaissance de l'audience et développement de produits

    Les annonces et le contenu peuvent être personnalisés en fonction d'un profil. D'autres données peuvent être ajoutées pour mieux personnaliser les annonces et le contenu. Les performances des publicités et du contenu peuvent être mesurées. Il est possible d'obtenir des informations sur le public qui a vu les publicités et le contenu. Ces données peuvent être utilisées pour développer ou améliorer l'expérience de l'utilisateur, les systèmes et les logiciels.

En cliquant sur "J'accepte", vous autorisez l'utilisation de cookies, des identifiants d'appareils, des balises web ou d'autres technologies similaires. Vos paramètres peuvent être modifiés dans le navigateur de votre appareil.

Dans certains cas, des intérêts légitimes peuvent être invoqués plutôt qu'un consentement. Vous pouvez en savoir plus à ce sujet dans notre Politique de confidentialité et de cookies.